STARLINK-32410

Last updated on Thu Nov 21 2024 00:02:06 GMT+0000 (Coordinated Universal Time)

1 61887U 24204P 24325.58335648 -.01179739 00000+0 -63566-2 0 9996 2 61887 53.1644 174.8706 0001015 96.8167 184.4581 15.82019290 3025
UTC large
Height (km)
Speed (km/s)
/
Latitude / Longitude
Inclination (degrees)
Orbital Period (minutes)
Azimuth
Elevation
Range (km)
Doppler Factor

Next 0 passes for location: London (51.5072 / 0.1276)

Sorry there are no passes over London.